FREGAT DEB, 45889

Orbit data source: Space-Track

FREGAT DEB, 45889 is space debris in LEO originally from a launch on Mon, 18 Jul 2011 UTC launched from the Tyuratam Missile And Space Complex (TTMTR). Debris objects in space refer to the collection of defunct objects orbiting the Earth. Examples of debris include non-operational satellites, rocket bodies, and fragments generated from explosions, collisions, or faulty payload assembly.

Loading next visibility...
Identifier
45889, 2011-037DJ
Orbit
LEO
Country
Flag of CISCIS
Related business
Manufacturer
Lavochkin
Mission
Spacecraft
Bus & Motor
Unknown
Mass
Unknown
Launch date (UTC)
2011-07-18 (14 years ago)
Launch vehicle
Unknown
Launch site
Tyuratam Missile And Space Complex (TTMTR)
Object type
Payload
Rocket body
Debris
Shape & HBR
Unknown shape, 0.1 m
Radar Cross Section
Small (<0.1 m²)

Expand to show TLE details & history
Last TLE update: 1 day ago

TLE from 1 day ago
0 FREGAT DEB
1 45889U 11037DJ  25348.28240442  .00083349  00000-0  81494-2 0  9999
2 45889  51.3270 354.2119 0713266 105.7807 262.2890 13.87119747237315
Epoch: 2025-12-14T06:46Z
TLE epoch observation values (Epoch: 2025-12-14T06:46:39.741Z)
Latitude
-0.00003°
Longitude
169.34873°
Altitude
1,045.354 km
Speed
7.277 km/s
True Right ascension
23h 36m 50s
True Declination
0° 00' 00"
Sunlit
Object was in daylight at epoch
Visualization orbit readout
Latitude
Unknown
Longitude
Unknown
Altitude
Unknown
Speed
Unknown
Apparent Right ascension
Unknown
Apparent Declination
Unknown
Sunlit
N/A
Visualization observer readout
Local Sidereal Time
05:43:35
Azimuth
Unknown
Elevation
Unknown
Doppler factor
Unknown
Orbital elements
Apogee altitude
1,461.192 km
Perigee altitude
417.341 km
Semi-major axis
7,317.403 km
Eccentricity
0.07133
Inclination
51.327°
RAAN
354.2119°
Arg. of periapsis
105.7807°
True anomaly
254.31109°
Mean anomaly
262.289°
Eccentric anomaly
258.28738°
Mean motion
3.46743 °/min
Orbital period
103.82 mins
BSTAR
0.0081494
Loading maneuver chart data...
Computing Atmospheric mass density...
Loading historical data...
Loading historical data...
Loading historical data...
Loading historical data...
Loading historical data...
Loading historical data...
Loading historical data...

Documentation

Showing up to 5 results
|